This is the latest recevied weather packets stored in our database for station/object OE-11373. If no packets are shown the sender has not sent any weather packets the latest 10 day(s).
| Time | Temp. | Humidity | Pressure | Rain* | Wind** | Luminosity | Snow |
|---|---|---|---|---|---|---|---|
| 1787699112 | 15° C | 75% | 852 hPa | - | - | - | - |
| 1787698513 | 14.44° C | 76% | 852 hPa | - | - | - | - |
| 1787697687 | 14.44° C | 77% | 851.9 hPa | - | - | - | - |
| 1787697312 | 14.44° C | 78% | 851.8 hPa | - | - | - | - |
| 1787696713 | 14.44° C | 79% | 851.7 hPa | - | - | - | - |
| 1787695886 | 14.44° C | 80% | 851.8 hPa | - | - | - | - |
| 1787695513 | 14.44° C | 79% | 851.8 hPa | - | - | - | - |
| 1787694912 | 14.44° C | 80% | 851.7 hPa | - | - | - | - |
| 1787694086 | 13.89° C | 82% | 851.7 hPa | - | - | - | - |
| 1787693713 | 14.44° C | 80% | 851.7 hPa | - | - | - | - |
| 1787693112 | 13.89° C | 83% | 851.6 hPa | - | - | - | - |
| 1787692286 | 13.89° C | 84% | 851.6 hPa | - | - | - | - |
| 1787691912 | 13.89° C | 84% | 851.7 hPa | - | - | - | - |
| 1787691313 | 13.89° C | 85% | 851.6 hPa | - | - | - | - |
| 1787690486 | 13.89° C | 84% | 851.6 hPa | - | - | - | - |
| 1787690113 | 13.33° C | 85% | 851.6 hPa | - | - | - | - |
| 1787689513 | 13.33° C | 87% | 851.6 hPa | - | - | - | - |
| 1787688686 | 13.33° C | 90% | 851.6 hPa | - | - | - | - |
| 1787688312 | 13.33° C | 92% | 851.6 hPa | - | - | - | - |
| 1787687713 | 13.33° C | 92% | 851.5 hPa | - | - | - | - |
| 1787686886 | 12.78° C | 97% | 851.5 hPa | - | - | - | - |
| 1787686512 | 12.78° C | 98% | 851.4 hPa | - | - | - | - |
| 1787685913 | 12.78° C | 99% | 851.3 hPa | - | - | - | - |
| 1787685086 | 12.78° C | 100% | 851.3 hPa | - | - | - | - |
| 1787684713 | 12.78° C | 100% | 851 hPa | - | - | - | - |
* Rain since midnight (hover to see other rain measurements)
** Current wind speed in m/s (hover to see current wind gust speed)